When you browse on this site, cookies collect data to enhance your experience and personalize the content and advertising you see.
Visit our Privacy Policy to learn more. By continuing to use the site, you agree to this use of cookies and data.
  • In Hungary
  • List of Countries
  • For 7 days
  • Water Temperature
  • Satellite Maps
  • Weather Map
  • News
  • Weather Widgets
  • user-avatar
    Login

    Hourly Weather Columbia

    Today, 15 February, Friday

    Time Temperature Precipitation Wind Pressure Humidity
    00:00 +7°C° 0 mm 4 mps 759 mmHg 59%
    01:00 +8°C° 0 mm 3 mps 758 mmHg 62%
    02:00 +9°C° 0 mm 3 mps 757 mmHg 60%
    03:00 +8°C° 0 mm 4 mps 757 mmHg 58%
    04:00 +9°C° 0 mm 5 mps 757 mmHg 56%
    05:00 +9°C° 0 mm 5 mps 757 mmHg 57%
    06:00 +9°C° 0 mm 5 mps 756 mmHg 58%
    07:00 +10°C° 0 mm 3 mps 756 mmHg 59%
    08:00 +11°C° 0 mm 4 mps 755 mmHg 57%
    09:00 +12°C° 0 mm 5 mps 755 mmHg 54%
    10:00 +13°C° 0 mm 5 mps 755 mmHg 51%
    11:00 +14°C° 0 mm 6 mps 755 mmHg 49%
    12:00 +16°C° 0 mm 6 mps 754 mmHg 47%
    13:00 +19°C° 0 mm 6 mps 753 mmHg 45%
    14:00 +17°C° 0 mm 5 mps 753 mmHg 47%
    15:00 +17°C° 0 mm 5 mps 753 mmHg 49%
    16:00 +17°C° 0 mm 5 mps 753 mmHg 51%
    17:00 +17°C° 0.1 mm 4 mps 753 mmHg 56%
    18:00 +15°C° 0.1 mm 4 mps 754 mmHg 62%
    19:00 +14°C° 0.1 mm 3 mps 755 mmHg 68%
    20:00 +12°C° 0 mm 4 mps 755 mmHg 61%
    21:00 +10°C° 0 mm 4 mps 756 mmHg 53%
    22:00 +8°C° 0 mm 5 mps 756 mmHg 46%
    23:00 +7°C° 0 mm 5 mps 757 mmHg 48%

    Tomorrow, 16 February, Saturday

    Time Temperature Precipitation Wind Pressure Humidity
    00:00 +6°C° 0 mm 4 mps 757 mmHg 49%
    01:00 +4°C° 0 mm 4 mps 757 mmHg 50%
    02:00 +4°C° 0 mm 4 mps 758 mmHg 50%
    03:00 +3°C° 0 mm 4 mps 758 mmHg 49%
    04:00 +1°C° 0 mm 4 mps 758 mmHg 48%
    05:00 +1°C° 0 mm 4 mps 758 mmHg 49%
    06:00 0°C° 0 mm 4 mps 759 mmHg 51%
    07:00 +1°C° 0 mm 3 mps 759 mmHg 52%
    08:00 +1°C° 0 mm 3 mps 759 mmHg 52%
    09:00 +1°C° 0 mm 3 mps 759 mmHg 52%
    10:00 +1°C° 0 mm 3 mps 760 mmHg 52%
    11:00 +2°C° 0 mm 3 mps 759 mmHg 48%
    12:00 +3°C° 0 mm 3 mps 759 mmHg 45%
    13:00 +4°C° 0 mm 3 mps 759 mmHg 42%
    14:00 +5°C° 0 mm 3 mps 759 mmHg 43%
    15:00 +5°C° 0 mm 3 mps 759 mmHg 44%
    16:00 +7°C° 0 mm 3 mps 758 mmHg 45%
    17:00 +5°C° 0 mm 3 mps 759 mmHg 49%
    18:00 +4°C° 0 mm 3 mps 760 mmHg 53%
    19:00 +4°C° 0 mm 2 mps 760 mmHg 58%
    20:00 +4°C° 0 mm 2 mps 761 mmHg 60%
    21:00 +3°C° 0 mm 2 mps 761 mmHg 61%
    22:00 +3°C° 0 mm 2 mps 762 mmHg 63%
    23:00 +2°C° 0 mm 2 mps 762 mmHg 64%

    Day after tomorrow, 17 February, Sunday

    Time Temperature Precipitation Wind Pressure Humidity
    00:00 +2°C° 0 mm 2 mps 762 mmHg 64%
    01:00 +1°C° 0 mm 2 mps 763 mmHg 64%
    02:00 +1°C° 0 mm 2 mps 763 mmHg 64%
    03:00 +1°C° 0 mm 1 mps 763 mmHg 63%
    04:00 +1°C° 0 mm 1 mps 763 mmHg 63%
    05:00 +1°C° 0 mm 1 mps 763 mmHg 62%
    06:00 +1°C° 0 mm 1 mps 763 mmHg 62%
    07:00 0°C° 0 mm 1 mps 763 mmHg 62%
    08:00 +2°C° 0 mm 1 mps 763 mmHg 57%
    09:00 +3°C° 0 mm 1 mps 764 mmHg 52%
    10:00 +3°C° 0 mm 2 mps 764 mmHg 47%
    11:00 +4°C° 0 mm 2 mps 763 mmHg 45%
    12:00 +5°C° 0 mm 2 mps 763 mmHg 43%
    13:00 +7°C° 0 mm 3 mps 762 mmHg 42%
    14:00 +7°C° 0 mm 3 mps 761 mmHg 45%
    15:00 +8°C° 0 mm 3 mps 760 mmHg 47%
    16:00 +8°C° 0 mm 3 mps 759 mmHg 50%
    17:00 +7°C° 0.3 mm 3 mps 759 mmHg 58%
    18:00 +7°C° 0.3 mm 3 mps 759 mmHg 67%
    19:00 +5°C° 0.3 mm 3 mps 759 mmHg 75%
    20:00 +5°C° 0.6 mm 4 mps 758 mmHg 78%
    21:00 +5°C° 0.6 mm 4 mps 758 mmHg 82%
    22:00 +5°C° 0.6 mm 4 mps 758 mmHg 86%
    23:00 +5°C° 0.4 mm 4 mps 757 mmHg 87%

    18 February, Monday

    Time Temperature Precipitation Wind Pressure Humidity
    00:00 +5°C° 0.4 mm 3 mps 756 mmHg 88%
    01:00 +5°C° 0.4 mm 3 mps 756 mmHg 89%
    02:00 +5°C° 0.1 mm 3 mps 755 mmHg 90%
    03:00 +5°C° 0.1 mm 3 mps 755 mmHg 90%
    04:00 +7°C° 0.1 mm 2 mps 754 mmHg 91%
    05:00 +6°C° 0 mm 2 mps 755 mmHg 91%
    06:00 +6°C° 0 mm 2 mps 755 mmHg 91%
    07:00 +6°C° 0 mm 2 mps 756 mmHg 91%
    08:00 +6°C° 0 mm 4 mps 756 mmHg 78%
    09:00 +8°C° 0 mm 5 mps 757 mmHg 66%
    10:00 +9°C° 0 mm 7 mps 758 mmHg 53%
    11:00 +10°C° 0 mm 7 mps 758 mmHg 50%
    12:00 +10°C° 0 mm 7 mps 759 mmHg 47%
    13:00 +10°C° 0 mm 7 mps 760 mmHg 43%
    14:00 +10°C° 0 mm 7 mps 760 mmHg 44%
    15:00 +9°C° 0 mm 6 mps 761 mmHg 44%
    16:00 +9°C° 0 mm 6 mps 762 mmHg 45%
    17:00 +7°C° 0 mm 6 mps 764 mmHg 48%
    18:00 +6°C° 0 mm 5 mps 765 mmHg 52%
    19:00 +3°C° 0 mm 5 mps 766 mmHg 56%
    20:00 +2°C° 0 mm 5 mps 767 mmHg 56%
    21:00 +2°C° 0 mm 5 mps 768 mmHg 57%
    22:00 +1°C° 0 mm 4 mps 769 mmHg 58%
    23:00 0°C° 0 mm 4 mps 770 mmHg 58%

    19 February, Tuesday

    Time Temperature Precipitation Wind Pressure Humidity
    00:00 0°C° 0 mm 4 mps 770 mmHg 58%
    01:00 -1°C° 0 mm 4 mps 770 mmHg 58%
    02:00 0°C° 0 mm 3 mps 771 mmHg 59%
    03:00 -1°C° 0 mm 3 mps 771 mmHg 59%
    04:00 -1°C° 0 mm 3 mps 772 mmHg 60%
    05:00 -1°C° 0 mm 2 mps 772 mmHg 60%
    06:00 -1°C° 0 mm 2 mps 773 mmHg 61%
    07:00 0°C° 0 mm 1 mps 774 mmHg 61%
    08:00 -1°C° 0 mm 2 mps 774 mmHg 55%
    09:00 +1°C° 0 mm 2 mps 774 mmHg 50%
    10:00 +1°C° 0 mm 3 mps 774 mmHg 44%
    11:00 +3°C° 0 mm 2 mps 774 mmHg 41%
    12:00 +5°C° 0 mm 2 mps 774 mmHg 38%
    13:00 +7°C° 0 mm 1 mps 773 mmHg 35%
    14:00 +7°C° 0 mm 1 mps 773 mmHg 36%
    15:00 +7°C° 0 mm 1 mps 772 mmHg 36%
    16:00 +6°C° 0 mm 0 mps 772 mmHg 37%
    17:00 +6°C° 0 mm 1 mps 772 mmHg 39%
    18:00 +6°C° 0 mm 1 mps 772 mmHg 41%
    19:00 +4°C° 0 mm 2 mps 772 mmHg 44%
    20:00 +5°C° 0 mm 1 mps 772 mmHg 46%
    21:00 +5°C° 0 mm 1 mps 772 mmHg 49%
    22:00 +5°C° 0 mm 1 mps 772 mmHg 52%
    23:00 +3°C° 0.2 mm 2 mps 772 mmHg 59%

    20 February, Wednesday

    Time Temperature Precipitation Wind Pressure Humidity
    00:00 +3°C° 0.2 mm 2 mps 771 mmHg 66%
    01:00 +3°C° 0.2 mm 2 mps 771 mmHg 72%
    02:00 +2°C° 0.8 mm 2 mps 770 mmHg 78%
    03:00 +2°C° 0.8 mm 2 mps 769 mmHg 84%
    04:00 +3°C° 0.8 mm 1 mps 768 mmHg 89%
    05:00 +1°C° 1.8 mm 2 mps 768 mmHg 92%
    06:00 0°C° 1.8 mm 3 mps 767 mmHg 94%
    07:00 0°C° 1.8 mm 3 mps 767 mmHg 96%
    08:00 0°C° 1.4 mm 3 mps 766 mmHg 97%
    09:00 0°C° 1.4 mm 3 mps 766 mmHg 97%
    10:00 -1°C° 1.4 mm 4 mps 766 mmHg 97%
    11:00 0°C° 0.8 mm 3 mps 765 mmHg 98%
    12:00 +1°C° 0.8 mm 3 mps 764 mmHg 98%
    13:00 +1°C° 0.8 mm 3 mps 763 mmHg 99%
    14:00 +1°C° 0.2 mm 3 mps 762 mmHg 99%
    15:00 +1°C° 0.2 mm 3 mps 762 mmHg 99%
    16:00 +2°C° 0.2 mm 2 mps 761 mmHg 99%
    17:00 +2°C° 0.1 mm 2 mps 761 mmHg 99%
    18:00 +2°C° 0.1 mm 2 mps 761 mmHg 99%
    19:00 +4°C° 0.1 mm 1 mps 761 mmHg 99%
    20:00 +4°C° 0 mm 1 mps 761 mmHg 99%
    21:00 +4°C° 0 mm 1 mps 760 mmHg 99%
    22:00 +4°C° 0 mm 1 mps 760 mmHg 99%
    23:00 +4°C° 0.1 mm 1 mps 760 mmHg 99%
    Show more